GEFSGL_prec_meanprecacc_048.txt.gz
Total_Precipitation_Accumulation
1.22 1.18 1.06 0.86 0.75 0.75 0.77 0.72 0.65 0.68 0.65 0.67 0.64 0.66 0.73 0.71 0.68 0.74 0.75 0.73 0.75 0.79 0.79 0.79 0.88 0.96 0.99 0.99 0.98 0.91 0.85 0.78 0.65 0.55 0.36 0.27 0.28 0.27 0.27 0.19 0.13 0.10 0.11
0.93 0.84 0.72 0.57 0.51 0.56 0.57 0.52 0.44 0.46 0.44 0.51 0.54 0.52 0.63 0.76 0.78 0.77 0.73 0.66 0.62 0.60 0.58 0.60 0.65 0.70 0.74 0.79 0.83 0.81 0.80 0.77 0.68 0.62 0.49 0.37 0.37 0.34 0.36 0.32 0.25 0.20 0.22
0.87 0.72 0.64 0.57 0.54 0.53 0.47 0.40 0.32 0.30 0.33 0.38 0.50 0.48 0.50 0.63 0.74 0.71 0.64 0.60 0.56 0.52 0.52 0.51 0.49 0.54 0.59 0.61 0.66 0.73 0.75 0.70 0.66 0.58 0.59 0.55 0.44 0.37 0.36 0.34 0.34 0.39 0.37
1.05 0.84 0.72 0.66 0.56 0.47 0.37 0.34 0.29 0.31 0.36 0.35 0.34 0.35 0.40 0.48 0.59 0.56 0.51 0.50 0.46 0.44 0.46 0.46 0.43 0.45 0.47 0.50 0.55 0.64 0.71 0.72 0.67 0.58 0.55 0.55 0.49 0.42 0.37 0.38 0.47 0.56 0.54
0.73 0.54 0.46 0.44 0.39 0.31 0.25 0.23 0.22 0.22 0.22 0.24 0.20 0.20 0.25 0.32 0.36 0.34 0.35 0.38 0.42 0.43 0.42 0.40 0.41 0.37 0.36 0.40 0.40 0.49 0.56 0.65 0.68 0.68 0.63 0.56 0.49 0.43 0.40 0.43 0.47 0.57 0.59
0.35 0.29 0.25 0.21 0.18 0.16 0.15 0.15 0.11 0.09 0.09 0.14 0.14 0.15 0.18 0.20 0.22 0.19 0.21 0.30 0.38 0.40 0.39 0.40 0.37 0.36 0.33 0.28 0.23 0.25 0.34 0.42 0.50 0.58 0.64 0.61 0.58 0.52 0.51 0.51 0.48 0.47 0.52
0.08 0.07 0.06 0.07 0.07 0.06 0.06 0.07 0.07 0.06 0.06 0.08 0.08 0.12 0.15 0.12 0.10 0.08 0.19 0.33 0.38 0.36 0.33 0.40 0.45 0.43 0.45 0.44 0.34 0.26 0.26 0.25 0.26 0.34 0.45 0.53 0.54 0.55 0.50 0.51 0.54 0.57 0.50
0.01 0.01 0.01 0.02 0.03 0.04 0.05 0.05 0.03 0.02 0.03 0.07 0.08 0.14 0.13 0.08 0.06 0.07 0.14 0.24 0.32 0.32 0.29 0.37 0.51 0.56 0.58 0.59 0.49 0.44 0.37 0.30 0.25 0.24 0.34 0.39 0.41 0.47 0.52 0.58 0.56 0.48 0.41
0.00 0.00 0.00 0.00 0.01 0.02 0.02 0.02 0.01 0.01 0.02 0.05 0.08 0.10 0.06 0.03 0.03 0.05 0.11 0.25 0.34 0.35 0.28 0.35 0.51 0.58 0.66 0.67 0.60 0.61 0.51 0.36 0.30 0.32 0.30 0.28 0.32 0.39 0.43 0.49 0.50 0.43 0.37
0.00 0.00 0.00 0.00 0.00 0.01 0.01 0.01 0.01 0.01 0.01 0.02 0.04 0.06 0.04 0.03 0.03 0.03 0.07 0.16 0.26 0.31 0.30 0.35 0.54 0.59 0.60 0.57 0.55 0.69 0.68 0.51 0.33 0.32 0.34 0.37 0.36 0.43 0.55 0.62 0.69 0.62 0.47
0.00 0.00 0.00 0.00 0.00 0.02 0.03 0.02 0.01 0.01 0.01 0.01 0.02 0.03 0.03 0.02 0.02 0.03 0.07 0.08 0.12 0.16 0.21 0.24 0.26 0.40 0.43 0.42 0.51 0.60 0.67 0.48 0.35 0.43 0.52 0.50 0.46 0.43 0.47 0.55 0.65 0.72 0.63
0.00 0.00 0.00 0.01 0.01 0.02 0.05 0.04 0.02 0.01 0.01 0.01 0.02 0.03 0.03 0.03 0.03 0.03 0.04 0.05 0.06 0.10 0.12 0.16 0.18 0.29 0.34 0.35 0.41 0.44 0.46 0.45 0.41 0.48 0.46 0.37 0.36 0.34 0.29 0.30 0.36 0.42 0.40
0.00 0.00 0.00 0.00 0.01 0.02 0.02 0.02 0.02 0.01 0.01 0.01 0.02 0.03 0.04 0.05 0.03 0.02 0.02 0.03 0.03 0.05 0.07 0.12 0.15 0.22 0.23 0.26 0.33 0.34 0.38 0.48 0.52 0.44 0.36 0.27 0.23 0.20 0.18 0.21 0.25 0.27 0.25
0.00 0.00 0.00 0.00 0.01 0.02 0.01 0.01 0.01 0.01 0.01 0.02 0.02 0.03 0.04 0.07 0.03 0.01 0.02 0.04 0.05 0.07 0.08 0.11 0.14 0.20 0.21 0.22 0.28 0.35 0.42 0.47 0.54 0.41 0.25 0.17 0.15 0.14 0.14 0.15 0.17 0.17 0.20
0.00 0.00 0.00 0.00 0.01 0.02 0.01 0.00 0.00 0.00 0.00 0.01 0.01 0.03 0.02 0.02 0.01 0.01 0.02 0.03 0.07 0.07 0.11 0.17 0.26 0.34 0.33 0.34 0.39 0.44 0.45 0.39 0.38 0.32 0.24 0.21 0.20 0.18 0.13 0.10 0.09 0.10 0.12
0.00 0.00 0.00 0.00 0.01 0.01 0.02 0.01 0.00 0.00 0.01 0.01 0.00 0.01 0.01 0.01 0.01 0.04 0.07 0.06 0.07 0.09 0.17 0.21 0.32 0.45 0.45 0.47 0.48 0.49 0.49 0.45 0.40 0.32 0.27 0.22 0.19 0.15 0.13 0.11 0.09 0.12 0.12
0.00 0.00 0.00 0.00 0.00 0.00 0.01 0.03 0.02 0.01 0.00 0.00 0.00 0.00 0.00 0.01 0.02 0.03 0.06 0.08 0.11 0.18 0.18 0.23 0.40 0.45 0.40 0.41 0.45 0.45 0.37 0.29 0.26 0.22 0.16 0.11 0.08 0.06 0.06 0.07 0.07 0.07 0.05
0.00 0.00 0.00 0.00 0.00 0.00 0.00 0.01 0.01 0.03 0.04 0.03 0.01 0.00 0.00 0.00 0.01 0.02 0.04 0.07 0.14 0.19 0.21 0.33 0.47 0.49 0.42 0.34 0.28 0.21 0.16 0.11 0.09 0.08 0.06 0.04 0.03 0.02 0.02 0.02 0.02 0.01 0.01
0.00 0.00 0.00 0.00 0.00 0.00 0.00 0.00 0.00 0.01 0.01 0.03 0.03 0.02 0.01 0.01 0.01 0.01 0.02 0.05 0.08 0.10 0.16 0.25 0.33 0.38 0.32 0.18 0.09 0.06 0.04 0.03 0.03 0.03 0.03 0.02 0.02 0.02 0.01 0.01 0.01 0.01 0.01
0.00 0.00 0.00 0.00 0.00 0.00 0.00 0.00 0.00 0.00 0.01 0.01 0.01 0.01 0.02 0.02 0.02 0.02 0.01 0.02 0.04 0.04 0.05 0.07 0.09 0.09 0.06 0.03 0.02 0.01 0.01 0.01 0.01 0.01 0.01 0.01 0.01 0.01 0.02 0.02 0.02 0.03 0.03
0.00 0.00 0.00 0.00 0.00 0.00 0.00 0.01 0.01 0.01 0.01 0.01 0.00 0.00 0.00 0.01 0.01 0.01 0.01 0.01 0.01 0.01 0.01 0.01 0.01 0.01 0.00 0.00 0.00 0.00 0.00 0.01 0.01 0.01 0.01 0.01 0.01 0.01 0.02 0.02 0.02 0.02 0.02
0.00 0.00 0.00 0.00 0.00 0.00 0.00 0.00 0.01 0.01 0.01 0.01 0.01 0.00 0.00 0.01 0.01 0.01 0.01 0.01 0.01 0.01 0.01 0.01 0.00 0.00 0.00 0.00 0.00 0.00 0.00 0.00 0.00 0.01 0.01 0.01 0.01 0.01 0.01 0.01 0.01 0.01 0.01
0.00 0.00 0.00 0.00 0.00 0.00 0.00 0.00 0.00 0.01 0.01 0.01 0.01 0.01 0.00 0.01 0.01 0.01 0.01 0.01 0.01 0.00 0.00 0.00 0.00 0.00 0.00 0.00 0.00 0.00 0.00 0.00 0.01 0.01 0.01 0.01 0.02 0.02 0.01 0.01 0.01 0.00 0.00
0.00 0.00 0.00 0.00 0.00 0.00 0.00 0.00 0.00 0.00 0.00 0.01 0.01 0.01 0.01 0.01 0.01 0.01 0.01 0.01 0.00 0.00 0.00 0.00 0.00 0.00 0.00 0.00 0.00 0.00 0.00 0.00 0.00 0.01 0.01 0.01 0.02 0.01 0.01 0.01 0.01 0.01 0.00
0.00 0.00 0.00 0.00 0.00 0.00 0.00 0.00 0.00 0.00 0.00 0.00 0.01 0.01 0.01 0.01 0.01 0.01 0.00 0.00 0.00 0.00 0.00 0.00 0.00 0.00 0.00 0.00 0.00 0.00 0.01 0.01 0.01 0.00 0.00 0.01 0.01 0.01 0.01 0.01 0.01 0.00 0.00
0.00 0.00 0.00 0.00 0.00 0.00 0.00 0.00 0.00 0.00 0.00 0.01 0.01 0.01 0.01 0.01 0.01 0.01 0.00 0.00 0.00 0.00 0.00 0.00 0.00 0.00 0.00 0.00 0.00 0.00 0.00 0.00 0.00 0.00 0.00 0.00 0.00 0.00 0.00 0.00 0.00 0.00 0.00

GEFSGL_prec_meanprecacc_054.txt.gz
Total_Precipitation_Accumulation
1.22 1.18 1.06 0.86 0.75 0.76 0.77 0.72 0.68 0.71 0.65 0.68 0.66 0.69 0.77 0.76 0.75 0.82 0.84 0.83 0.87 0.93 0.95 0.95 1.05 1.17 1.22 1.25 1.24 1.19 1.14 1.02 0.84 0.72 0.50 0.39 0.40 0.38 0.39 0.31 0.27 0.25 0.23
0.93 0.84 0.72 0.57 0.51 0.56 0.57 0.52 0.44 0.47 0.44 0.51 0.54 0.53 0.66 0.80 0.83 0.84 0.82 0.75 0.72 0.72 0.75 0.77 0.85 0.90 0.95 1.05 1.15 1.11 1.10 1.07 0.94 0.83 0.66 0.51 0.48 0.44 0.48 0.45 0.39 0.36 0.36
0.87 0.72 0.64 0.57 0.54 0.53 0.47 0.40 0.32 0.31 0.33 0.38 0.51 0.49 0.52 0.67 0.78 0.76 0.69 0.67 0.66 0.65 0.66 0.66 0.67 0.75 0.84 0.85 0.93 1.02 1.04 1.00 0.94 0.83 0.81 0.73 0.59 0.49 0.48 0.47 0.48 0.54 0.51
1.05 0.84 0.72 0.66 0.56 0.47 0.37 0.34 0.29 0.32 0.36 0.35 0.35 0.37 0.42 0.50 0.62 0.62 0.58 0.57 0.54 0.56 0.61 0.62 0.60 0.63 0.68 0.73 0.76 0.85 0.94 0.96 0.91 0.82 0.77 0.75 0.67 0.59 0.51 0.51 0.60 0.69 0.68
0.73 0.54 0.46 0.44 0.39 0.31 0.25 0.23 0.22 0.22 0.22 0.24 0.21 0.22 0.26 0.33 0.37 0.38 0.42 0.46 0.49 0.52 0.54 0.55 0.55 0.51 0.51 0.58 0.57 0.67 0.76 0.85 0.88 0.88 0.83 0.75 0.66 0.59 0.54 0.54 0.59 0.72 0.75
0.35 0.29 0.25 0.21 0.18 0.16 0.15 0.15 0.11 0.09 0.09 0.14 0.14 0.15 0.19 0.21 0.24 0.22 0.25 0.35 0.44 0.47 0.49 0.51 0.52 0.48 0.45 0.41 0.39 0.42 0.53 0.61 0.68 0.76 0.82 0.77 0.72 0.66 0.64 0.62 0.59 0.61 0.71
0.08 0.07 0.06 0.07 0.07 0.06 0.06 0.07 0.07 0.06 0.06 0.08 0.08 0.13 0.15 0.12 0.13 0.11 0.21 0.38 0.43 0.41 0.39 0.47 0.55 0.56 0.57 0.56 0.46 0.42 0.42 0.44 0.46 0.53 0.62 0.66 0.66 0.66 0.61 0.62 0.64 0.67 0.60
0.01 0.01 0.01 0.02 0.03 0.04 0.05 0.05 0.03 0.02 0.03 0.07 0.08 0.14 0.13 0.08 0.08 0.09 0.16 0.28 0.35 0.35 0.34 0.41 0.55 0.61 0.65 0.66 0.57 0.57 0.51 0.43 0.39 0.38 0.48 0.52 0.54 0.60 0.65 0.71 0.68 0.59 0.53
0.00 0.00 0.00 0.00 0.01 0.02 0.02 0.02 0.01 0.01 0.02 0.05 0.08 0.10 0.06 0.04 0.05 0.07 0.13 0.28 0.37 0.38 0.32 0.38 0.54 0.62 0.71 0.72 0.65 0.67 0.60 0.44 0.39 0.41 0.39 0.39 0.43 0.51 0.56 0.61 0.61 0.53 0.48
0.00 0.00 0.00 0.00 0.00 0.01 0.01 0.01 0.01 0.01 0.01 0.02 0.04 0.06 0.05 0.05 0.04 0.04 0.10 0.19 0.28 0.35 0.34 0.36 0.57 0.63 0.64 0.61 0.58 0.73 0.73 0.56 0.39 0.37 0.39 0.44 0.44 0.52 0.66 0.74 0.80 0.71 0.54
0.00 0.00 0.00 0.00 0.00 0.02 0.03 0.02 0.01 0.01 0.01 0.01 0.02 0.03 0.03 0.03 0.04 0.04 0.09 0.11 0.14 0.19 0.22 0.26 0.29 0.44 0.46 0.46 0.54 0.63 0.70 0.53 0.40 0.47 0.56 0.55 0.53 0.52 0.57 0.66 0.77 0.83 0.71
0.00 0.00 0.00 0.01 0.01 0.02 0.05 0.04 0.02 0.01 0.01 0.01 0.02 0.03 0.03 0.03 0.03 0.03 0.06 0.07 0.08 0.12 0.14 0.18 0.21 0.33 0.38 0.40 0.45 0.48 0.50 0.49 0.46 0.53 0.51 0.42 0.44 0.43 0.38 0.40 0.48 0.56 0.51
0.00 0.00 0.00 0.00 0.01 0.02 0.02 0.02 0.02 0.01 0.01 0.01 0.02 0.03 0.04 0.05 0.03 0.03 0.03 0.03 0.05 0.07 0.09 0.16 0.20 0.28 0.29 0.31 0.38 0.39 0.42 0.53 0.55 0.49 0.42 0.33 0.30 0.28 0.26 0.30 0.37 0.39 0.35
0.00 0.00 0.00 0.00 0.01 0.02 0.01 0.01 0.01 0.01 0.01 0.02 0.02 0.03 0.04 0.07 0.03 0.01 0.03 0.04 0.06 0.08 0.10 0.13 0.18 0.25 0.27 0.27 0.32 0.38 0.45 0.51 0.58 0.45 0.30 0.24 0.21 0.21 0.22 0.24 0.28 0.26 0.28
0.00 0.00 0.00 0.00 0.01 0.02 0.01 0.00 0.00 0.00 0.00 0.01 0.01 0.03 0.02 0.02 0.01 0.01 0.02 0.04 0.07 0.07 0.11 0.19 0.28 0.37 0.37 0.37 0.42 0.46 0.48 0.42 0.42 0.36 0.30 0.28 0.26 0.24 0.21 0.19 0.18 0.18 0.19
0.00 0.00 0.00 0.00 0.01 0.01 0.02 0.01 0.00 0.00 0.01 0.01 0.00 0.01 0.01 0.01 0.01 0.04 0.07 0.06 0.07 0.09 0.18 0.22 0.34 0.46 0.48 0.50 0.50 0.51 0.51 0.47 0.43 0.36 0.32 0.28 0.23 0.21 0.19 0.17 0.15 0.18 0.19
0.00 0.00 0.00 0.00 0.00 0.00 0.01 0.03 0.02 0.01 0.00 0.00 0.00 0.00 0.00 0.01 0.02 0.03 0.06 0.08 0.11 0.18 0.19 0.24 0.41 0.47 0.42 0.42 0.46 0.46 0.40 0.31 0.27 0.24 0.18 0.13 0.10 0.09 0.09 0.09 0.10 0.11 0.09
0.00 0.00 0.00 0.00 0.00 0.00 0.00 0.01 0.01 0.03 0.04 0.03 0.01 0.00 0.00 0.00 0.01 0.02 0.04 0.07 0.14 0.19 0.21 0.33 0.47 0.50 0.42 0.34 0.28 0.22 0.17 0.12 0.10 0.09 0.07 0.04 0.04 0.03 0.03 0.03 0.04 0.03 0.02
0.00 0.00 0.00 0.00 0.00 0.00 0.00 0.00 0.00 0.01 0.01 0.03 0.03 0.02 0.01 0.01 0.01 0.01 0.02 0.05 0.08 0.10 0.16 0.25 0.33 0.38 0.32 0.18 0.09 0.06 0.04 0.04 0.04 0.03 0.03 0.03 0.02 0.02 0.02 0.02 0.02 0.02 0.02
0.00 0.00 0.00 0.00 0.00 0.00 0.00 0.00 0.00 0.00 0.01 0.01 0.01 0.01 0.02 0.02 0.02 0.02 0.01 0.02 0.04 0.04 0.05 0.07 0.09 0.09 0.06 0.03 0.02 0.01 0.01 0.01 0.01 0.01 0.01 0.01 0.01 0.01 0.02 0.02 0.02 0.03 0.03
0.00 0.00 0.00 0.00 0.00 0.00 0.00 0.01 0.01 0.01 0.01 0.01 0.00 0.00 0.00 0.01 0.01 0.01 0.01 0.01 0.01 0.01 0.01 0.01 0.01 0.01 0.00 0.00 0.00 0.00 0.00 0.01 0.01 0.01 0.01 0.01 0.01 0.01 0.02 0.02 0.02 0.02 0.02
0.00 0.00 0.00 0.00 0.00 0.00 0.00 0.00 0.01 0.01 0.01 0.01 0.01 0.00 0.00 0.01 0.01 0.01 0.01 0.01 0.01 0.01 0.01 0.01 0.00 0.00 0.00 0.00 0.00 0.00 0.00 0.00 0.00 0.01 0.01 0.01 0.01 0.01 0.01 0.01 0.01 0.01 0.01
0.00 0.00 0.00 0.00 0.00 0.00 0.00 0.00 0.00 0.01 0.01 0.01 0.01 0.01 0.00 0.01 0.01 0.01 0.01 0.01 0.01 0.00 0.00 0.00 0.00 0.00 0.00 0.00 0.00 0.00 0.00 0.00 0.01 0.01 0.01 0.01 0.02 0.02 0.01 0.01 0.01 0.00 0.00
0.00 0.00 0.00 0.00 0.00 0.00 0.00 0.00 0.00 0.00 0.00 0.01 0.01 0.01 0.01 0.01 0.01 0.01 0.01 0.01 0.00 0.00 0.00 0.00 0.00 0.00 0.00 0.00 0.00 0.00 0.00 0.00 0.00 0.01 0.01 0.01 0.02 0.01 0.01 0.01 0.01 0.01 0.00
0.00 0.00 0.00 0.00 0.00 0.00 0.00 0.00 0.00 0.00 0.00 0.00 0.01 0.01 0.01 0.01 0.01 0.01 0.00 0.00 0.00 0.00 0.00 0.00 0.00 0.00 0.00 0.00 0.00 0.00 0.01 0.01 0.01 0.00 0.00 0.01 0.01 0.01 0.01 0.01 0.01 0.00 0.00
0.00 0.00 0.00 0.00 0.00 0.00 0.00 0.00 0.00 0.00 0.00 0.01 0.01 0.01 0.01 0.01 0.01 0.01 0.00 0.00 0.00 0.00 0.00 0.00 0.00 0.00 0.00 0.00 0.00 0.00 0.00 0.00 0.00 0.00 0.00 0.00 0.00 0.00 0.00 0.00 0.00 0.00 0.00

GEFSGL_prec_meanprecacc_060.txt.gz
Total_Precipitation_Accumulation
1.22 1.18 1.06 0.86 0.75 0.76 0.77 0.73 0.68 0.71 0.65 0.68 0.66 0.69 0.79 0.77 0.76 0.84 0.88 0.87 0.91 0.98 1.03 1.03 1.15 1.27 1.34 1.39 1.40 1.34 1.30 1.21 1.03 0.90 0.66 0.51 0.50 0.47 0.48 0.39 0.36 0.34 0.30
0.93 0.84 0.72 0.57 0.51 0.56 0.57 0.52 0.44 0.47 0.44 0.51 0.55 0.53 0.69 0.84 0.85 0.86 0.85 0.79 0.77 0.78 0.82 0.86 0.96 1.02 1.08 1.18 1.28 1.26 1.27 1.25 1.13 1.02 0.83 0.67 0.61 0.56 0.60 0.56 0.50 0.47 0.47
0.87 0.72 0.64 0.57 0.54 0.53 0.47 0.40 0.32 0.31 0.33 0.38 0.51 0.50 0.54 0.70 0.81 0.79 0.72 0.70 0.71 0.71 0.73 0.74 0.78 0.86 0.97 1.00 1.08 1.16 1.20 1.20 1.17 1.07 1.02 0.92 0.77 0.66 0.65 0.62 0.63 0.70 0.68
1.05 0.84 0.72 0.66 0.56 0.47 0.37 0.34 0.29 0.32 0.36 0.35 0.35 0.37 0.42 0.52 0.64 0.64 0.60 0.59 0.58 0.60 0.67 0.70 0.71 0.74 0.81 0.89 0.93 1.02 1.11 1.16 1.11 1.05 1.01 0.97 0.87 0.81 0.76 0.74 0.80 0.88 0.90
0.73 0.54 0.46 0.44 0.39 0.31 0.25 0.23 0.22 0.22 0.22 0.24 0.21 0.22 0.26 0.34 0.38 0.39 0.44 0.48 0.51 0.55 0.60 0.63 0.66 0.62 0.64 0.72 0.72 0.83 0.93 1.04 1.07 1.08 1.03 0.96 0.89 0.83 0.80 0.79 0.83 0.95 0.98
0.35 0.29 0.25 0.21 0.18 0.16 0.15 0.15 0.11 0.09 0.09 0.14 0.14 0.15 0.19 0.21 0.26 0.23 0.27 0.38 0.46 0.50 0.53 0.57 0.63 0.62 0.59 0.57 0.55 0.60 0.70 0.79 0.87 0.96 1.00 0.95 0.91 0.85 0.86 0.87 0.86 0.90 1.03
0.08 0.07 0.06 0.07 0.07 0.06 0.06 0.07 0.07 0.06 0.06 0.08 0.08 0.13 0.16 0.13 0.15 0.13 0.23 0.42 0.46 0.44 0.42 0.52 0.64 0.68 0.72 0.75 0.62 0.59 0.59 0.61 0.65 0.74 0.82 0.84 0.83 0.83 0.81 0.86 0.89 0.91 0.85
0.01 0.01 0.01 0.02 0.03 0.04 0.05 0.05 0.03 0.02 0.03 0.07 0.08 0.14 0.13 0.09 0.10 0.12 0.18 0.32 0.40 0.38 0.37 0.46 0.61 0.71 0.77 0.78 0.70 0.72 0.67 0.58 0.53 0.56 0.70 0.74 0.73 0.81 0.89 0.96 0.96 0.87 0.85
0.00 0.00 0.00 0.00 0.01 0.02 0.02 0.02 0.01 0.01 0.02 0.05 0.08 0.10 0.07 0.04 0.06 0.09 0.16 0.31 0.40 0.41 0.37 0.45 0.60 0.68 0.77 0.78 0.74 0.81 0.77 0.60 0.52 0.55 0.58 0.62 0.66 0.75 0.84 0.89 0.90 0.84 0.82
0.00 0.00 0.00 0.00 0.00 0.01 0.01 0.01 0.01 0.01 0.01 0.02 0.04 0.06 0.05 0.05 0.05 0.05 0.12 0.21 0.30 0.38 0.37 0.40 0.61 0.68 0.68 0.65 0.65 0.83 0.88 0.72 0.52 0.49 0.54 0.63 0.67 0.76 0.91 0.98 1.04 0.94 0.76
0.00 0.00 0.00 0.00 0.00 0.02 0.03 0.02 0.01 0.01 0.01 0.01 0.02 0.03 0.03 0.03 0.05 0.05 0.10 0.11 0.15 0.21 0.25 0.29 0.33 0.46 0.49 0.51 0.58 0.70 0.79 0.65 0.56 0.63 0.73 0.74 0.77 0.79 0.83 0.90 1.02 1.06 0.89
0.00 0.00 0.00 0.01 0.01 0.02 0.05 0.04 0.02 0.01 0.01 0.01 0.02 0.03 0.03 0.03 0.03 0.03 0.06 0.07 0.09 0.13 0.16 0.20 0.25 0.35 0.40 0.45 0.50 0.52 0.55 0.59 0.61 0.71 0.72 0.64 0.65 0.67 0.63 0.65 0.74 0.81 0.70
0.00 0.00 0.00 0.00 0.01 0.02 0.02 0.02 0.02 0.01 0.01 0.01 0.02 0.03 0.04 0.05 0.03 0.03 0.03 0.04 0.05 0.07 0.10 0.16 0.21 0.29 0.30 0.35 0.43 0.42 0.47 0.63 0.70 0.64 0.60 0.53 0.48 0.46 0.43 0.49 0.58 0.63 0.56
0.00 0.00 0.00 0.00 0.01 0.02 0.01 0.01 0.01 0.01 0.01 0.02 0.02 0.03 0.04 0.07 0.03 0.01 0.03 0.04 0.07 0.09 0.10 0.14 0.18 0.26 0.29 0.32 0.36 0.43 0.50 0.58 0.69 0.57 0.45 0.41 0.36 0.34 0.35 0.36 0.43 0.43 0.46
0.00 0.00 0.00 0.00 0.01 0.02 0.01 0.00 0.00 0.00 0.00 0.01 0.01 0.03 0.02 0.02 0.01 0.01 0.02 0.04 0.07 0.08 0.11 0.20 0.29 0.39 0.40 0.40 0.45 0.49 0.51 0.45 0.49 0.44 0.41 0.41 0.38 0.35 0.33 0.29 0.29 0.29 0.30
0.00 0.00 0.00 0.00 0.01 0.01 0.02 0.01 0.00 0.00 0.01 0.01 0.00 0.01 0.01 0.01 0.01 0.04 0.07 0.06 0.07 0.09 0.18 0.23 0.35 0.47 0.50 0.52 0.53 0.53 0.55 0.50 0.48 0.42 0.40 0.38 0.34 0.30 0.29 0.28 0.25 0.27 0.26
0.00 0.00 0.00 0.00 0.00 0.00 0.01 0.03 0.02 0.01 0.00 0.00 0.00 0.00 0.00 0.01 0.02 0.03 0.06 0.08 0.11 0.18 0.19 0.25 0.42 0.48 0.44 0.43 0.47 0.49 0.44 0.34 0.32 0.31 0.25 0.22 0.19 0.17 0.16 0.18 0.19 0.18 0.15
0.00 0.00 0.00 0.00 0.00 0.00 0.00 0.01 0.01 0.03 0.04 0.03 0.01 0.00 0.00 0.00 0.01 0.02 0.04 0.07 0.14 0.19 0.22 0.35 0.48 0.50 0.43 0.34 0.29 0.24 0.19 0.15 0.14 0.14 0.12 0.10 0.11 0.10 0.09 0.09 0.09 0.07 0.07
0.00 0.00 0.00 0.00 0.00 0.00 0.00 0.00 0.00 0.01 0.01 0.03 0.03 0.02 0.01 0.01 0.01 0.01 0.02 0.05 0.08 0.10 0.16 0.25 0.33 0.39 0.32 0.18 0.10 0.07 0.05 0.05 0.05 0.06 0.06 0.06 0.06 0.07 0.06 0.05 0.05 0.04 0.05
0.00 0.00 0.00 0.00 0.00 0.00 0.00 0.00 0.00 0.00 0.01 0.01 0.01 0.01 0.02 0.02 0.02 0.02 0.01 0.02 0.04 0.04 0.05 0.07 0.09 0.09 0.06 0.03 0.02 0.02 0.01 0.02 0.02 0.02 0.02 0.02 0.03 0.04 0.05 0.04 0.03 0.04 0.04
0.00 0.00 0.00 0.00 0.00 0.00 0.00 0.01 0.01 0.01 0.01 0.01 0.00 0.00 0.00 0.01 0.01 0.01 0.01 0.01 0.01 0.01 0.01 0.01 0.01 0.01 0.00 0.00 0.01 0.01 0.01 0.01 0.01 0.01 0.01 0.01 0.02 0.02 0.03 0.04 0.03 0.03 0.03
0.00 0.00 0.00 0.00 0.00 0.00 0.00 0.00 0.01 0.01 0.01 0.01 0.01 0.00 0.00 0.01 0.01 0.01 0.01 0.01 0.01 0.01 0.01 0.01 0.00 0.00 0.00 0.00 0.00 0.00 0.00 0.01 0.01 0.01 0.01 0.01 0.01 0.01 0.02 0.02 0.02 0.02 0.01
0.00 0.00 0.00 0.00 0.00 0.00 0.00 0.00 0.00 0.01 0.01 0.01 0.01 0.01 0.00 0.01 0.01 0.01 0.01 0.01 0.01 0.00 0.00 0.00 0.00 0.00 0.00 0.00 0.00 0.00 0.00 0.00 0.01 0.01 0.01 0.02 0.02 0.02 0.01 0.01 0.01 0.01 0.01
0.00 0.00 0.00 0.00 0.00 0.00 0.00 0.00 0.00 0.00 0.00 0.01 0.01 0.01 0.01 0.01 0.01 0.01 0.01 0.01 0.00 0.00 0.00 0.00 0.00 0.00 0.00 0.00 0.00 0.00 0.00 0.00 0.00 0.01 0.01 0.02 0.02 0.01 0.01 0.01 0.01 0.01 0.00
0.00 0.00 0.00 0.00 0.00 0.00 0.00 0.00 0.00 0.00 0.00 0.00 0.01 0.01 0.01 0.01 0.01 0.01 0.00 0.00 0.00 0.00 0.00 0.00 0.00 0.00 0.00 0.00 0.00 0.00 0.01 0.01 0.01 0.00 0.01 0.01 0.01 0.01 0.01 0.01 0.01 0.01 0.00
0.00 0.00 0.00 0.00 0.00 0.00 0.00 0.00 0.00 0.00 0.00 0.01 0.01 0.01 0.01 0.01 0.01 0.01 0.00 0.00 0.00 0.00 0.00 0.00 0.00 0.00 0.00 0.00 0.00 0.00 0.00 0.00 0.00 0.00 0.00 0.00 0.01 0.00 0.00 0.00 0.00 0.00 0.00

GEFSGL_prec_meanprecacc_066.txt.gz
Total_Precipitation_Accumulation
1.22 1.18 1.06 0.86 0.75 0.76 0.77 0.73 0.68 0.71 0.66 0.68 0.66 0.69 0.80 0.79 0.78 0.87 0.92 0.93 0.98 1.06 1.11 1.12 1.25 1.40 1.48 1.53 1.54 1.48 1.43 1.32 1.11 0.97 0.74 0.57 0.57 0.55 0.56 0.47 0.48 0.48 0.39
0.93 0.84 0.72 0.57 0.51 0.56 0.57 0.52 0.44 0.47 0.44 0.51 0.55 0.54 0.69 0.85 0.87 0.89 0.89 0.83 0.83 0.85 0.89 0.95 1.05 1.12 1.20 1.33 1.44 1.41 1.41 1.39 1.24 1.11 0.92 0.75 0.66 0.62 0.67 0.65 0.62 0.61 0.58
0.87 0.72 0.64 0.57 0.54 0.53 0.47 0.40 0.32 0.31 0.33 0.38 0.51 0.50 0.54 0.71 0.82 0.81 0.76 0.74 0.75 0.76 0.78 0.81 0.86 0.95 1.07 1.12 1.21 1.31 1.35 1.34 1.32 1.20 1.13 1.03 0.86 0.74 0.74 0.71 0.74 0.83 0.83
1.05 0.84 0.72 0.66 0.56 0.47 0.37 0.34 0.29 0.32 0.36 0.35 0.35 0.37 0.43 0.53 0.65 0.65 0.62 0.61 0.60 0.63 0.73 0.76 0.79 0.83 0.91 0.99 1.05 1.17 1.27 1.32 1.28 1.19 1.14 1.08 0.99 0.93 0.88 0.86 0.92 1.00 1.03
0.73 0.54 0.46 0.44 0.39 0.31 0.25 0.23 0.22 0.22 0.22 0.24 0.21 0.22 0.27 0.34 0.39 0.39 0.45 0.50 0.54 0.59 0.65 0.69 0.72 0.69 0.70 0.78 0.79 0.94 1.09 1.21 1.23 1.23 1.15 1.07 0.99 0.96 0.94 0.92 0.97 1.10 1.15
0.35 0.29 0.25 0.21 0.18 0.16 0.15 0.15 0.11 0.09 0.09 0.14 0.14 0.16 0.20 0.22 0.26 0.23 0.27 0.40 0.50 0.55 0.59 0.63 0.68 0.68 0.64 0.61 0.60 0.66 0.80 0.92 1.01 1.10 1.12 1.05 0.99 0.95 0.98 1.03 1.02 1.09 1.25
0.08 0.07 0.06 0.07 0.07 0.06 0.06 0.07 0.07 0.06 0.06 0.08 0.08 0.13 0.17 0.13 0.15 0.13 0.23 0.44 0.50 0.49 0.48 0.59 0.70 0.74 0.78 0.82 0.68 0.64 0.67 0.71 0.76 0.89 0.95 0.94 0.94 0.94 0.93 1.00 1.06 1.08 1.01
0.01 0.01 0.01 0.02 0.03 0.04 0.05 0.05 0.03 0.02 0.03 0.07 0.08 0.14 0.14 0.09 0.10 0.13 0.19 0.36 0.45 0.42 0.42 0.52 0.67 0.78 0.83 0.84 0.78 0.81 0.78 0.68 0.63 0.68 0.83 0.87 0.87 0.97 1.03 1.10 1.16 1.11 1.09
0.00 0.00 0.00 0.00 0.01 0.02 0.02 0.02 0.01 0.01 0.02 0.05 0.09 0.10 0.07 0.04 0.06 0.10 0.18 0.35 0.43 0.44 0.41 0.48 0.63 0.72 0.81 0.82 0.78 0.89 0.90 0.70 0.59 0.65 0.69 0.74 0.81 0.91 1.03 1.09 1.12 1.09 1.11
0.00 0.00 0.00 0.00 0.00 0.01 0.01 0.01 0.01 0.01 0.01 0.02 0.04 0.06 0.05 0.06 0.05 0.05 0.12 0.23 0.32 0.40 0.41 0.45 0.65 0.71 0.71 0.69 0.70 0.90 1.00 0.86 0.62 0.56 0.61 0.71 0.77 0.88 1.07 1.15 1.24 1.16 0.99
0.00 0.00 0.00 0.00 0.00 0.02 0.03 0.02 0.01 0.01 0.01 0.01 0.02 0.03 0.03 0.03 0.05 0.05 0.10 0.12 0.16 0.22 0.27 0.33 0.37 0.48 0.51 0.54 0.62 0.75 0.85 0.75 0.66 0.73 0.81 0.83 0.88 0.91 0.96 1.05 1.21 1.26 1.10
0.00 0.00 0.00 0.01 0.01 0.02 0.05 0.04 0.02 0.01 0.01 0.01 0.02 0.03 0.03 0.03 0.03 0.03 0.06 0.07 0.09 0.13 0.17 0.23 0.27 0.36 0.41 0.46 0.52 0.54 0.58 0.63 0.68 0.81 0.84 0.76 0.79 0.83 0.80 0.84 0.96 1.04 0.90
0.00 0.00 0.00 0.00 0.01 0.02 0.02 0.02 0.02 0.01 0.01 0.01 0.02 0.03 0.04 0.05 0.03 0.03 0.03 0.04 0.05 0.07 0.10 0.17 0.21 0.29 0.30 0.36 0.43 0.43 0.49 0.69 0.79 0.74 0.72 0.69 0.67 0.68 0.64 0.70 0.85 0.94 0.86
0.00 0.00 0.00 0.00 0.01 0.02 0.01 0.01 0.01 0.01 0.01 0.02 0.02 0.03 0.04 0.07 0.03 0.01 0.03 0.05 0.07 0.09 0.11 0.15 0.19 0.27 0.30 0.33 0.38 0.45 0.54 0.65 0.78 0.66 0.56 0.57 0.56 0.61 0.65 0.61 0.66 0.72 0.81
0.00 0.00 0.00 0.00 0.01 0.02 0.01 0.00 0.00 0.00 0.00 0.01 0.01 0.03 0.02 0.02 0.01 0.01 0.02 0.04 0.07 0.08 0.12 0.21 0.32 0.43 0.43 0.44 0.49 0.53 0.56 0.51 0.55 0.52 0.51 0.56 0.58 0.58 0.62 0.60 0.55 0.52 0.53
0.00 0.00 0.00 0.00 0.01 0.01 0.02 0.01 0.00 0.00 0.01 0.01 0.00 0.01 0.01 0.01 0.01 0.04 0.07 0.06 0.07 0.09 0.18 0.24 0.36 0.50 0.54 0.56 0.56 0.57 0.59 0.54 0.52 0.47 0.48 0.49 0.49 0.48 0.48 0.52 0.51 0.51 0.47
0.00 0.00 0.00 0.00 0.00 0.00 0.01 0.03 0.02 0.01 0.00 0.00 0.00 0.00 0.00 0.01 0.02 0.03 0.06 0.08 0.11 0.18 0.20 0.26 0.43 0.49 0.45 0.45 0.50 0.52 0.48 0.38 0.36 0.34 0.30 0.30 0.31 0.31 0.30 0.35 0.40 0.40 0.35
0.00 0.00 0.00 0.00 0.00 0.00 0.00 0.01 0.01 0.03 0.04 0.03 0.01 0.00 0.00 0.00 0.01 0.02 0.04 0.07 0.14 0.19 0.22 0.35 0.48 0.50 0.44 0.36 0.31 0.26 0.22 0.18 0.17 0.18 0.18 0.17 0.21 0.23 0.23 0.23 0.25 0.25 0.25
0.00 0.00 0.00 0.00 0.00 0.00 0.00 0.00 0.00 0.01 0.01 0.03 0.03 0.02 0.01 0.01 0.01 0.01 0.02 0.05 0.08 0.10 0.17 0.26 0.33 0.39 0.32 0.19 0.11 0.08 0.07 0.07 0.08 0.10 0.11 0.12 0.13 0.15 0.18 0.19 0.18 0.19 0.19
0.00 0.00 0.00 0.00 0.00 0.00 0.00 0.00 0.00 0.00 0.01 0.01 0.01 0.01 0.02 0.02 0.02 0.02 0.01 0.02 0.04 0.04 0.05 0.07 0.09 0.09 0.06 0.04 0.03 0.03 0.03 0.04 0.04 0.05 0.06 0.07 0.08 0.10 0.12 0.13 0.12 0.11 0.13
0.00 0.00 0.00 0.00 0.00 0.00 0.00 0.01 0.01 0.01 0.01 0.01 0.00 0.00 0.00 0.01 0.02 0.02 0.02 0.02 0.01 0.01 0.01 0.01 0.01 0.01 0.01 0.01 0.02 0.02 0.02 0.03 0.04 0.04 0.05 0.05 0.06 0.07 0.09 0.10 0.10 0.08 0.08
0.00 0.00 0.00 0.00 0.00 0.00 0.00 0.00 0.01 0.01 0.01 0.01 0.01 0.00 0.00 0.01 0.01 0.01 0.02 0.02 0.01 0.01 0.01 0.01 0.01 0.01 0.01 0.01 0.01 0.01 0.02 0.03 0.03 0.04 0.04 0.05 0.05 0.05 0.05 0.06 0.07 0.06 0.05
0.00 0.00 0.00 0.00 0.00 0.00 0.00 0.00 0.00 0.01 0.01 0.01 0.01 0.01 0.01 0.01 0.01 0.01 0.01 0.01 0.02 0.01 0.01 0.01 0.01 0.01 0.01 0.01 0.01 0.01 0.01 0.02 0.03 0.05 0.06 0.06 0.05 0.05 0.04 0.04 0.04 0.04 0.04
0.00 0.00 0.00 0.00 0.00 0.00 0.00 0.00 0.00 0.00 0.00 0.01 0.01 0.01 0.01 0.01 0.01 0.01 0.01 0.01 0.01 0.01 0.01 0.01 0.02 0.02 0.02 0.02 0.02 0.01 0.01 0.01 0.02 0.04 0.06 0.08 0.07 0.05 0.04 0.04 0.04 0.03 0.03
0.00 0.00 0.00 0.00 0.00 0.00 0.00 0.00 0.00 0.00 0.00 0.00 0.01 0.01 0.01 0.01 0.01 0.01 0.01 0.00 0.01 0.01 0.01 0.02 0.02 0.02 0.02 0.02 0.02 0.02 0.03 0.02 0.02 0.03 0.05 0.07 0.08 0.08 0.06 0.04 0.03 0.03 0.03
0.00 0.00 0.00 0.00 0.00 0.00 0.00 0.00 0.00 0.00 0.00 0.01 0.01 0.01 0.01 0.01 0.01 0.01 0.00 0.00 0.00 0.01 0.01 0.02 0.02 0.02 0.03 0.03 0.03 0.04 0.04 0.03 0.02 0.02 0.03 0.06 0.08 0.09 0.08 0.06 0.04 0.03 0.02

GEFSGL_prec_meanprecacc_072.txt.gz
Total_Precipitation_Accumulation
1.22 1.18 1.06 0.86 0.75 0.76 0.77 0.73 0.68 0.71 0.66 0.68 0.66 0.70 0.80 0.79 0.79 0.87 0.92 0.93 0.98 1.07 1.13 1.14 1.27 1.42 1.51 1.55 1.56 1.52 1.49 1.36 1.13 0.98 0.76 0.59 0.60 0.59 0.62 0.54 0.56 0.61 0.54
0.93 0.84 0.72 0.57 0.51 0.56 0.57 0.52 0.44 0.47 0.44 0.51 0.55 0.54 0.69 0.85 0.87 0.89 0.89 0.84 0.85 0.86 0.91 0.97 1.09 1.14 1.22 1.36 1.48 1.45 1.46 1.46 1.29 1.14 0.95 0.77 0.69 0.65 0.72 0.73 0.71 0.69 0.68
0.87 0.72 0.64 0.57 0.54 0.53 0.47 0.40 0.32 0.31 0.33 0.38 0.51 0.50 0.54 0.71 0.82 0.81 0.76 0.74 0.76 0.77 0.80 0.84 0.89 0.98 1.09 1.13 1.23 1.33 1.38 1.39 1.37 1.25 1.17 1.06 0.89 0.78 0.80 0.78 0.84 0.94 0.93
1.05 0.84 0.72 0.66 0.56 0.47 0.37 0.34 0.29 0.32 0.36 0.35 0.35 0.37 0.43 0.53 0.65 0.65 0.62 0.61 0.61 0.64 0.74 0.81 0.85 0.88 0.94 1.01 1.07 1.18 1.30 1.35 1.32 1.23 1.18 1.13 1.04 0.99 0.95 0.91 0.98 1.09 1.14
0.73 0.54 0.46 0.44 0.39 0.31 0.25 0.23 0.22 0.22 0.22 0.24 0.21 0.22 0.27 0.34 0.39 0.39 0.45 0.51 0.55 0.59 0.68 0.74 0.76 0.72 0.74 0.81 0.81 0.95 1.11 1.24 1.26 1.27 1.20 1.12 1.04 1.01 0.98 0.97 1.02 1.17 1.24
0.35 0.29 0.25 0.21 0.18 0.16 0.15 0.15 0.11 0.09 0.09 0.14 0.14 0.16 0.20 0.22 0.26 0.24 0.28 0.41 0.51 0.56 0.62 0.66 0.72 0.72 0.68 0.64 0.63 0.69 0.83 0.94 1.04 1.13 1.15 1.09 1.03 1.00 1.04 1.11 1.10 1.17 1.31
0.08 0.07 0.06 0.07 0.07 0.06 0.06 0.07 0.07 0.06 0.06 0.08 0.08 0.13 0.17 0.13 0.15 0.14 0.24 0.45 0.50 0.51 0.50 0.62 0.72 0.77 0.80 0.84 0.71 0.67 0.70 0.73 0.79 0.90 0.97 0.97 0.98 0.99 1.00 1.07 1.15 1.17 1.09
0.01 0.01 0.01 0.02 0.03 0.04 0.05 0.05 0.03 0.02 0.03 0.07 0.08 0.14 0.14 0.09 0.10 0.13 0.19 0.36 0.45 0.43 0.44 0.54 0.69 0.80 0.84 0.85 0.79 0.83 0.81 0.72 0.66 0.70 0.85 0.90 0.91 1.02 1.10 1.17 1.24 1.21 1.19
0.00 0.00 0.00 0.00 0.01 0.02 0.02 0.02 0.01 0.01 0.02 0.05 0.09 0.10 0.07 0.04 0.06 0.10 0.18 0.35 0.43 0.44 0.41 0.49 0.65 0.73 0.83 0.84 0.80 0.90 0.91 0.74 0.63 0.68 0.72 0.78 0.86 0.97 1.10 1.17 1.20 1.17 1.19
0.00 0.00 0.00 0.00 0.00 0.01 0.01 0.01 0.01 0.01 0.01 0.02 0.04 0.06 0.05 0.06 0.05 0.05 0.12 0.23 0.32 0.40 0.41 0.45 0.66 0.72 0.74 0.71 0.72 0.92 1.02 0.89 0.64 0.59 0.64 0.75 0.81 0.93 1.13 1.22 1.32 1.24 1.07
0.00 0.00 0.00 0.00 0.00 0.02 0.03 0.02 0.01 0.01 0.01 0.01 0.02 0.03 0.03 0.03 0.05 0.05 0.10 0.12 0.16 0.22 0.27 0.33 0.37 0.49 0.52 0.56 0.66 0.77 0.87 0.77 0.68 0.75 0.84 0.86 0.92 0.96 1.01 1.11 1.27 1.34 1.17
0.00 0.00 0.00 0.01 0.01 0.02 0.05 0.04 0.02 0.01 0.01 0.01 0.02 0.03 0.03 0.03 0.03 0.03 0.06 0.07 0.09 0.13 0.17 0.23 0.27 0.36 0.41 0.47 0.54 0.58 0.61 0.66 0.71 0.83 0.85 0.78 0.82 0.88 0.86 0.92 1.04 1.12 0.98
0.00 0.00 0.00 0.00 0.01 0.02 0.02 0.02 0.02 0.01 0.01 0.01 0.02 0.03 0.04 0.05 0.03 0.03 0.03 0.04 0.05 0.07 0.10 0.17 0.21 0.29 0.30 0.36 0.44 0.44 0.52 0.73 0.82 0.76 0.74 0.72 0.71 0.73 0.70 0.77 0.94 1.04 0.95
0.00 0.00 0.00 0.00 0.01 0.02 0.01 0.01 0.01 0.01 0.01 0.02 0.02 0.03 0.04 0.07 0.03 0.01 0.03 0.05 0.07 0.09 0.11 0.15 0.19 0.27 0.30 0.33 0.38 0.46 0.55 0.68 0.80 0.67 0.57 0.59 0.59 0.65 0.70 0.68 0.74 0.80 0.90
0.00 0.00 0.00 0.00 0.01 0.02 0.01 0.00 0.00 0.00 0.00 0.01 0.01 0.03 0.02 0.02 0.01 0.01 0.02 0.04 0.07 0.08 0.12 0.21 0.32 0.43 0.43 0.44 0.49 0.53 0.56 0.52 0.57 0.53 0.52 0.57 0.59 0.60 0.65 0.66 0.65 0.62 0.62
0.00 0.00 0.00 0.00 0.01 0.01 0.02 0.01 0.00 0.00 0.01 0.01 0.00 0.01 0.01 0.01 0.01 0.04 0.07 0.06 0.07 0.09 0.18 0.24 0.36 0.50 0.54 0.56 0.56 0.57 0.59 0.54 0.52 0.47 0.49 0.50 0.50 0.49 0.50 0.57 0.62 0.64 0.57
0.00 0.00 0.00 0.00 0.00 0.00 0.01 0.03 0.02 0.01 0.00 0.00 0.00 0.00 0.00 0.01 0.02 0.03 0.06 0.08 0.11 0.18 0.20 0.26 0.43 0.49 0.45 0.45 0.50 0.52 0.48 0.38 0.36 0.35 0.30 0.31 0.32 0.32 0.32 0.38 0.46 0.51 0.50
0.00 0.00 0.00 0.00 0.00 0.00 0.00 0.01 0.01 0.03 0.04 0.03 0.01 0.00 0.00 0.00 0.01 0.02 0.04 0.07 0.14 0.19 0.22 0.35 0.48 0.50 0.44 0.36 0.31 0.27 0.23 0.18 0.17 0.19 0.18 0.18 0.22 0.25 0.25 0.26 0.30 0.32 0.36
0.00 0.00 0.00 0.00 0.00 0.00 0.00 0.00 0.00 0.01 0.01 0.03 0.03 0.02 0.01 0.01 0.01 0.01 0.03 0.05 0.08 0.10 0.17 0.26 0.33 0.39 0.32 0.19 0.12 0.09 0.07 0.08 0.09 0.11 0.13 0.14 0.14 0.17 0.20 0.22 0.23 0.27 0.28
0.00 0.00 0.00 0.00 0.00 0.00 0.00 0.00 0.00 0.00 0.01 0.01 0.01 0.01 0.02 0.02 0.02 0.02 0.02 0.02 0.04 0.04 0.05 0.07 0.10 0.09 0.07 0.04 0.04 0.04 0.03 0.05 0.06 0.06 0.08 0.09 0.10 0.13 0.16 0.17 0.17 0.18 0.20
0.00 0.00 0.00 0.00 0.00 0.00 0.00 0.01 0.01 0.01 0.01 0.01 0.00 0.00 0.00 0.01 0.02 0.02 0.02 0.02 0.02 0.02 0.02 0.02 0.02 0.02 0.01 0.02 0.02 0.03 0.03 0.04 0.05 0.05 0.06 0.07 0.09 0.10 0.14 0.15 0.15 0.14 0.14
0.00 0.00 0.00 0.00 0.00 0.00 0.00 0.00 0.01 0.01 0.01 0.01 0.01 0.00 0.00 0.01 0.01 0.02 0.02 0.02 0.02 0.02 0.02 0.03 0.03 0.03 0.03 0.03 0.03 0.03 0.04 0.04 0.05 0.06 0.06 0.07 0.08 0.09 0.10 0.11 0.12 0.12 0.11
0.00 0.00 0.00 0.00 0.00 0.00 0.00 0.00 0.00 0.01 0.01 0.01 0.01 0.01 0.01 0.01 0.01 0.02 0.01 0.02 0.02 0.02 0.02 0.03 0.04 0.04 0.04 0.05 0.05 0.05 0.04 0.04 0.05 0.07 0.09 0.09 0.08 0.08 0.09 0.09 0.09 0.10 0.09
0.00 0.00 0.00 0.00 0.00 0.00 0.00 0.00 0.00 0.00 0.00 0.01 0.01 0.01 0.01 0.01 0.01 0.01 0.01 0.01 0.01 0.01 0.02 0.02 0.03 0.03 0.04 0.05 0.06 0.06 0.06 0.06 0.06 0.07 0.09 0.12 0.11 0.09 0.09 0.09 0.09 0.10 0.09
0.00 0.00 0.00 0.00 0.00 0.00 0.00 0.00 0.00 0.00 0.00 0.00 0.01 0.01 0.01 0.01 0.01 0.01 0.01 0.00 0.01 0.01 0.01 0.02 0.02 0.03 0.03 0.04 0.06 0.07 0.10 0.09 0.07 0.07 0.08 0.11 0.12 0.13 0.11 0.10 0.10 0.11 0.11
0.00 0.00 0.00 0.00 0.00 0.00 0.00 0.00 0.00 0.00 0.00 0.01 0.01 0.01 0.01 0.01 0.01 0.01 0.00 0.00 0.00 0.01 0.01 0.02 0.02 0.02 0.03 0.04 0.05 0.08 0.09 0.08 0.07 0.07 0.08 0.10 0.12 0.14 0.15 0.14 0.12 0.12 0.12

GEFSGL_prec_meanprecacc_078.txt.gz
Total_Precipitation_Accumulation
1.22 1.18 1.06 0.86 0.75 0.76 0.77 0.73 0.68 0.71 0.66 0.68 0.66 0.70 0.80 0.79 0.79 0.87 0.92 0.93 0.98 1.07 1.13 1.14 1.27 1.42 1.52 1.56 1.58 1.54 1.50 1.38 1.15 0.99 0.76 0.60 0.61 0.60 0.64 0.56 0.59 0.65 0.58
0.93 0.84 0.72 0.57 0.51 0.56 0.57 0.52 0.44 0.47 0.44 0.51 0.55 0.54 0.69 0.85 0.87 0.89 0.89 0.84 0.85 0.86 0.91 0.98 1.09 1.15 1.23 1.37 1.49 1.46 1.48 1.48 1.32 1.15 0.95 0.78 0.70 0.66 0.73 0.75 0.73 0.72 0.71
0.87 0.72 0.64 0.57 0.54 0.53 0.47 0.40 0.32 0.31 0.33 0.38 0.51 0.50 0.54 0.71 0.82 0.82 0.76 0.74 0.76 0.77 0.80 0.84 0.90 1.00 1.11 1.15 1.25 1.34 1.39 1.40 1.39 1.26 1.18 1.07 0.90 0.79 0.80 0.79 0.84 0.95 0.94
1.05 0.84 0.72 0.66 0.56 0.47 0.37 0.34 0.29 0.32 0.36 0.35 0.35 0.37 0.43 0.53 0.65 0.66 0.63 0.62 0.61 0.65 0.75 0.82 0.86 0.90 0.96 1.04 1.08 1.20 1.31 1.36 1.33 1.25 1.19 1.14 1.05 1.00 0.96 0.92 0.99 1.09 1.15
0.73 0.54 0.46 0.44 0.39 0.31 0.25 0.23 0.22 0.22 0.22 0.24 0.21 0.22 0.27 0.34 0.39 0.40 0.47 0.51 0.56 0.61 0.70 0.75 0.78 0.74 0.77 0.84 0.84 0.97 1.12 1.25 1.27 1.29 1.21 1.13 1.06 1.02 0.99 0.98 1.03 1.18 1.25
0.35 0.29 0.25 0.21 0.18 0.16 0.15 0.15 0.11 0.09 0.09 0.14 0.14 0.16 0.20 0.22 0.26 0.24 0.29 0.42 0.52 0.58 0.64 0.68 0.74 0.74 0.72 0.68 0.67 0.72 0.84 0.95 1.05 1.14 1.16 1.10 1.04 1.01 1.06 1.13 1.12 1.18 1.32
0.08 0.07 0.06 0.07 0.07 0.06 0.06 0.07 0.07 0.06 0.06 0.08 0.08 0.13 0.17 0.13 0.15 0.14 0.24 0.45 0.51 0.52 0.51 0.63 0.73 0.78 0.82 0.85 0.72 0.69 0.72 0.76 0.80 0.92 0.99 0.98 0.99 1.00 1.01 1.09 1.16 1.18 1.10
0.01 0.01 0.01 0.02 0.03 0.04 0.05 0.05 0.03 0.02 0.03 0.07 0.08 0.14 0.14 0.09 0.10 0.13 0.19 0.36 0.45 0.43 0.44 0.54 0.70 0.81 0.85 0.86 0.80 0.84 0.83 0.74 0.68 0.73 0.87 0.92 0.92 1.03 1.11 1.18 1.26 1.23 1.21
0.00 0.00 0.00 0.00 0.01 0.02 0.02 0.02 0.01 0.01 0.02 0.05 0.09 0.10 0.07 0.04 0.06 0.10 0.18 0.35 0.43 0.44 0.41 0.49 0.65 0.74 0.83 0.84 0.81 0.91 0.92 0.75 0.66 0.71 0.74 0.80 0.87 0.98 1.12 1.19 1.22 1.19 1.21
0.00 0.00 0.00 0.00 0.00 0.01 0.01 0.01 0.01 0.01 0.01 0.02 0.04 0.06 0.05 0.06 0.05 0.05 0.12 0.23 0.32 0.40 0.41 0.46 0.66 0.72 0.74 0.71 0.72 0.92 1.03 0.90 0.66 0.61 0.66 0.77 0.83 0.95 1.16 1.25 1.35 1.27 1.09
0.00 0.00 0.00 0.00 0.00 0.02 0.03 0.02 0.01 0.01 0.01 0.01 0.02 0.03 0.03 0.03 0.05 0.05 0.10 0.12 0.16 0.22 0.27 0.33 0.37 0.49 0.52 0.56 0.67 0.77 0.88 0.78 0.69 0.76 0.85 0.88 0.94 0.98 1.04 1.13 1.30 1.38 1.21
0.00 0.00 0.00 0.01 0.01 0.02 0.05 0.04 0.02 0.01 0.01 0.01 0.02 0.03 0.03 0.03 0.03 0.03 0.06 0.07 0.09 0.13 0.17 0.23 0.27 0.36 0.41 0.47 0.54 0.59 0.62 0.67 0.72 0.84 0.86 0.79 0.84 0.90 0.88 0.94 1.07 1.16 1.02
0.00 0.00 0.00 0.00 0.01 0.02 0.02 0.02 0.02 0.01 0.01 0.01 0.02 0.03 0.04 0.05 0.03 0.03 0.03 0.04 0.05 0.07 0.10 0.17 0.21 0.29 0.30 0.36 0.44 0.44 0.52 0.74 0.83 0.77 0.75 0.73 0.72 0.75 0.72 0.80 0.98 1.08 1.00
0.00 0.00 0.00 0.00 0.01 0.02 0.01 0.01 0.01 0.01 0.01 0.02 0.02 0.03 0.04 0.07 0.03 0.01 0.03 0.05 0.07 0.09 0.11 0.15 0.19 0.27 0.30 0.33 0.38 0.46 0.56 0.71 0.83 0.69 0.58 0.60 0.61 0.67 0.73 0.70 0.77 0.83 0.95
0.00 0.00 0.00 0.00 0.01 0.02 0.01 0.00 0.00 0.00 0.00 0.01 0.01 0.03 0.02 0.02 0.01 0.01 0.02 0.04 0.07 0.08 0.12 0.21 0.32 0.43 0.43 0.44 0.49 0.53 0.56 0.55 0.59 0.54 0.53 0.58 0.61 0.61 0.66 0.68 0.67 0.65 0.66
0.00 0.00 0.00 0.00 0.01 0.01 0.02 0.01 0.00 0.00 0.01 0.01 0.00 0.01 0.01 0.01 0.01 0.04 0.07 0.06 0.07 0.09 0.18 0.24 0.36 0.50 0.54 0.56 0.56 0.57 0.59 0.54 0.53 0.48 0.49 0.50 0.51 0.50 0.51 0.58 0.63 0.66 0.60
0.00 0.00 0.00 0.00 0.00 0.00 0.01 0.03 0.02 0.01 0.00 0.00 0.00 0.00 0.00 0.01 0.02 0.03 0.06 0.08 0.11 0.18 0.20 0.26 0.43 0.49 0.45 0.45 0.50 0.52 0.48 0.38 0.36 0.35 0.30 0.31 0.32 0.32 0.33 0.39 0.47 0.52 0.52
0.00 0.00 0.00 0.00 0.00 0.00 0.00 0.01 0.01 0.03 0.04 0.03 0.01 0.00 0.00 0.00 0.01 0.02 0.04 0.07 0.14 0.19 0.23 0.36 0.49 0.51 0.44 0.36 0.31 0.27 0.23 0.18 0.17 0.19 0.19 0.19 0.22 0.25 0.26 0.26 0.31 0.33 0.37
0.00 0.00 0.00 0.00 0.00 0.00 0.00 0.00 0.00 0.01 0.01 0.03 0.03 0.02 0.01 0.01 0.01 0.01 0.03 0.05 0.09 0.11 0.17 0.26 0.34 0.39 0.33 0.19 0.12 0.09 0.07 0.08 0.09 0.11 0.13 0.14 0.15 0.17 0.21 0.22 0.24 0.28 0.30
0.00 0.00 0.00 0.00 0.00 0.00 0.00 0.00 0.00 0.00 0.01 0.01 0.01 0.01 0.02 0.02 0.02 0.02 0.02 0.03 0.04 0.05 0.05 0.08 0.10 0.10 0.07 0.04 0.04 0.04 0.04 0.05 0.06 0.07 0.08 0.09 0.11 0.14 0.17 0.18 0.18 0.20 0.24
0.00 0.00 0.00 0.00 0.00 0.00 0.00 0.01 0.01 0.01 0.01 0.01 0.00 0.00 0.00 0.01 0.02 0.02 0.03 0.02 0.02 0.02 0.03 0.02 0.02 0.02 0.02 0.02 0.03 0.03 0.03 0.04 0.05 0.05 0.07 0.08 0.09 0.11 0.14 0.16 0.16 0.16 0.17
0.00 0.00 0.00 0.00 0.00 0.00 0.00 0.00 0.01 0.01 0.01 0.01 0.01 0.00 0.00 0.01 0.01 0.02 0.02 0.02 0.02 0.02 0.03 0.03 0.03 0.03 0.03 0.03 0.03 0.04 0.04 0.05 0.05 0.06 0.07 0.08 0.08 0.09 0.10 0.12 0.13 0.13 0.13
0.00 0.00 0.00 0.00 0.00 0.00 0.00 0.00 0.00 0.01 0.01 0.01 0.01 0.01 0.01 0.01 0.01 0.02 0.01 0.02 0.02 0.02 0.02 0.03 0.04 0.04 0.05 0.05 0.05 0.05 0.05 0.05 0.06 0.08 0.09 0.09 0.09 0.09 0.09 0.09 0.10 0.11 0.11
0.00 0.00 0.00 0.00 0.00 0.00 0.00 0.00 0.00 0.00 0.00 0.01 0.01 0.01 0.01 0.01 0.01 0.01 0.01 0.01 0.01 0.01 0.02 0.02 0.03 0.04 0.04 0.05 0.06 0.06 0.06 0.06 0.06 0.07 0.09 0.12 0.11 0.09 0.09 0.09 0.10 0.10 0.11
0.00 0.00 0.00 0.00 0.00 0.00 0.00 0.00 0.00 0.00 0.00 0.00 0.01 0.01 0.01 0.01 0.01 0.01 0.01 0.00 0.01 0.01 0.01 0.02 0.02 0.03 0.03 0.04 0.06 0.07 0.10 0.09 0.07 0.07 0.08 0.11 0.13 0.13 0.12 0.11 0.10 0.11 0.12
0.00 0.00 0.00 0.00 0.00 0.00 0.00 0.00 0.00 0.00 0.00 0.01 0.01 0.01 0.01 0.01 0.01 0.01 0.00 0.00 0.00 0.01 0.01 0.02 0.02 0.02 0.03 0.04 0.05 0.08 0.09 0.08 0.07 0.07 0.08 0.10 0.12 0.14 0.15 0.14 0.12 0.12 0.13